Time,TemperatureF,DewpointF,PressureIn,WindDirection,WindDirectionDegrees,WindSpeedMPH,WindSpeedGustMPH,Humidity,HourlyPrecipIn,Conditions,Clouds,dailyrainin,SoftwareType,DateUTC
2013-01-07 00:12:00,33.0,25.0,-100.00,WSW,240,2.0,2.0,71,-99.99,,,-99.99,,2013-01-07 07:12:00,
2013-01-07 01:12:00,34.0,25.0,-100.00,South,190,2.0,2.0,69,-99.99,,,-99.99,,2013-01-07 08:12:00,
2013-01-07 02:12:00,34.0,25.0,-100.00,SSW,195,2.0,2.0,69,-99.99,,,-99.99,,2013-01-07 09:12:00,
2013-01-07 02:30:00,34.0,25.0,-100.00,SW,228,2.0,2.0,69,-99.99,,,-99.99,,2013-01-07 09:30:00,
2013-01-07 03:12:00,34.0,25.0,-100.00,SW,228,2.0,2.0,69,-99.99,,,-99.99,,2013-01-07 10:12:00,
2013-01-07 03:22:00,34.0,25.0,-100.00,SW,228,2.0,2.0,69,-99.99,,,-99.99,,2013-01-07 10:22:00,
2013-01-07 07:30:00,31.0,31.0,-100.00,South,183,0.0,2.0,100,-99.99,,,-99.99,,2013-01-07 14:30:00,
2013-01-07 08:12:00,31.0,31.0,-100.00,South,183,0.0,2.0,100,-99.99,,,-99.99,,2013-01-07 15:12:00,
2013-01-07 08:22:00,31.0,31.0,-100.00,South,183,0.0,2.0,100,-99.99,,,-99.99,,2013-01-07 15:22:00,
2013-01-07 08:30:00,31.0,31.0,-100.00,South,186,0.0,0.0,100,-99.99,,,-99.99,,2013-01-07 15:30:00,
2013-01-07 09:12:00,31.0,31.0,-100.00,South,186,0.0,0.0,100,-99.99,,,-99.99,,2013-01-07 16:12:00,
2013-01-07 09:22:00,31.0,31.0,-100.00,South,186,0.0,0.0,100,-99.99,,,-99.99,,2013-01-07 16:22:00,
2013-01-07 10:30:00,32.0,32.0,-100.00,South,188,0.0,2.0,99,-99.99,,,-99.99,,2013-01-07 17:30:00,
2013-01-07 11:12:00,32.0,32.0,-100.00,South,188,0.0,2.0,99,-99.99,,,-99.99,,2013-01-07 18:12:00,
2013-01-07 11:23:00,32.0,32.0,-100.00,South,188,0.0,2.0,99,-99.99,,,-99.99,,2013-01-07 18:23:00,
2013-01-07 11:30:00,32.0,32.0,-100.00,South,191,0.0,0.0,98,-99.99,,,-99.99,,2013-01-07 18:30:00,
2013-01-07 12:12:00,32.0,32.0,-100.00,South,191,0.0,0.0,98,-99.99,,,-99.99,,2013-01-07 19:12:00,
2013-01-07 12:22:00,32.0,32.0,-100.00,South,191,0.0,0.0,98,-99.99,,,-99.99,,2013-01-07 19:22:00,
2013-01-07 14:12:00,32.0,32.0,-100.00,North,0,0.0,0.0,98,-99.99,,,-99.99,,2013-01-07 21:12:00,
2013-01-07 17:12:00,33.0,32.0,-100.00,North,0,0.0,0.0,97,-99.99,,,-99.99,,2013-01-08 00:12:00,
2013-01-07 17:30:00,33.0,32.0,-100.00,North,0,0.0,0.0,98,-99.99,,,-99.99,,2013-01-08 00:30:00,
2013-01-07 18:12:00,33.0,32.0,-100.00,North,0,0.0,0.0,98,-99.99,,,-99.99,,2013-01-08 01:12:00,
2013-01-07 18:22:00,33.0,32.0,-100.00,North,0,0.0,0.0,98,-99.99,,,-99.99,,2013-01-08 01:22:00,
2013-01-07 19:30:00,33.0,32.0,-100.00,North,0,0.0,0.0,96,-99.99,,,-99.99,,2013-01-08 02:30:00,
2013-01-07 20:12:00,33.0,32.0,-100.00,North,0,0.0,0.0,96,-99.99,,,-99.99,,2013-01-08 03:12:00,
2013-01-07 20:22:00,33.0,32.0,-100.00,North,0,0.0,0.0,96,-99.99,,,-99.99,,2013-01-08 03:22:00,
2013-01-07 20:30:00,34.0,32.0,-100.00,SW,216,0.0,2.0,93,-99.99,,,-99.99,,2013-01-08 03:30:00,
2013-01-07 21:12:00,34.0,32.0,-100.00,SW,216,0.0,2.0,93,-99.99,,,-99.99,,2013-01-08 04:12:00,
2013-01-07 21:22:00,34.0,32.0,-100.00,SW,216,0.0,2.0,93,-99.99,,,-99.99,,2013-01-08 04:22:00,
2013-01-07 21:30:00,34.0,33.0,-100.00,NW,308,0.0,0.0,96,-99.99,,,-99.99,,2013-01-08 04:30:00,
2013-01-07 22:12:00,34.0,33.0,-100.00,NW,308,0.0,0.0,96,-99.99,,,-99.99,,2013-01-08 05:12:00,
2013-01-07 22:22:00,34.0,33.0,-100.00,NW,308,0.0,0.0,96,-99.99,,,-99.99,,2013-01-08 05:22:00,
2013-01-07 22:30:00,35.0,33.0,-100.00,SE,136,2.0,2.0,94,-99.99,,,-99.99,,2013-01-08 05:30:00,
2013-01-07 23:12:00,35.0,33.0,-100.00,SE,136,2.0,2.0,94,-99.99,,,-99.99,,2013-01-08 06:12:00,
2013-01-07 23:22:00,35.0,33.0,-100.00,SE,136,2.0,2.0,94,-99.99,,,-99.99,,2013-01-08 06:22:00,
2013-01-07 23:30:00,35.0,34.0,-100.00,SSE,155,0.0,2.0,98,-99.99,,,-99.99,,2013-01-08 06:30:00,